Marrakech, Morocco

9:58 PM WET on February 25, 2017 (GMT +0000)
Marrakech

Weather History for GMMX - April, 2014

Change the Weather History Date:

Wednesday, April 16, 2014

  Actual Average Record
Temperature  
Mean Temperature 70 °F -  
Max Temperature 85 °F 78 °F 97 °F (2013)
Min Temperature 55 °F 55 °F 48 °F (1999)
Cooling Degree Days 5    
Growing Degree Days 20 (Base 50)    
Moisture  
Dew Point 54 °F    
Average Humidity 61    
Maximum Humidity 100    
Minimum Humidity 22    
Precipitation  
Precipitation 0.00 in 0.04 in - ()
Sea Level Pressure  
Sea Level Pressure 29.99 in    
Wind  
Wind Speed 5 mph ()    
Max Wind Speed 15 mph    
Max Gust Speed -    
Visibility 4.8 miles    
Events      
Averages and records for this station are not official NWS values.
T = Trace of Precipitation, MM = Missing Value Source: Averaged Metar Reports

Daily Weather History Graph

Daily Weather History Graph

Search for Another Location

Airport or City:

Trip Planner

Search our weather history database for the weather conditions in past years. The results will help you decide how hot, cold, wet, or windy it might be!

Date:

Astronomy

Apr. 16, 2014 Rise Set
Actual Time 7:02 AM WEST 8:01 PM WEST
Civil Twilight 6:37 AM WEST 8:26 PM WEST
Nautical Twilight 6:08 AM WEST 8:56 PM WEST
Astronomical Twilight 5:37 AM WEST 9:26 PM WEST
Moon 9:26 PM WEST (4/16) 7:44 AM WEST (4/16)
Length of Visible Light 13h 48m
Length of Day
12h 58m
Full, 99% of the Moon is Illuminated
Apr 16
Full
Apr 22
Last Quarter
Apr 29
New
May 7
First Quarter
May 14
Full

Hourly Weather History & Observations

Time (WEST) Temp. Heat Index Dew Point Humidity Pressure Visibility Wind Dir Wind Speed Gust Speed Precip Events Conditions
12:00 AM 68.0 °F - 53.6 °F 60% 30.04 in - NE 3.5 mph - N/A   Clear
12:30 AM 68.0 °F - 51.8 °F 56% 30.04 in - East 4.6 mph - N/A   Clear
1:00 AM 66 °F - 50 °F 45% 30.00 in 6 mi NNE 5.8 mph - -  
1:00 AM 66.2 °F - 50.0 °F 56% 30.04 in - NNE 6.9 mph - N/A   Clear
3:00 AM 60.8 °F - 53.6 °F 77% 30.01 in - SW 6.9 mph - N/A   Clear
3:30 AM 59.0 °F - 53.6 °F 82% 30.01 in - SW 4.6 mph - N/A   Clear
4:00 AM 58 °F - 54 °F 82% 30.01 in 6 mi WSW 5.8 mph - -   Clear
4:00 AM 59.0 °F - 53.6 °F 82% 30.01 in - WSW 6.9 mph - N/A   Clear
4:30 AM 57.2 °F - 55.4 °F 94% 30.01 in 6.2 mi WSW 5.8 mph - N/A   Unknown
5:00 AM 57.2 °F - 55.4 °F 94% 30.01 in - WSW 4.6 mph - N/A   Clear
5:30 AM 57.2 °F - 55.4 °F 94% 30.01 in - SW 4.6 mph - N/A   Clear
6:00 AM 57.2 °F - 55.4 °F 94% 30.01 in - WSW 3.5 mph - N/A   Clear
6:30 AM 57.2 °F - 55.4 °F 94% 30.01 in 5.6 mi SW 5.8 mph - N/A   Unknown
7:00 AM 56 °F - 54 °F 89% 30.02 in 4 mi WSW 2.3 mph - -   Clear
7:00 AM 55.4 °F - 53.6 °F 94% 30.01 in 4.3 mi WSW 3.5 mph - N/A   Unknown
7:30 AM 57.2 °F - 55.4 °F 94% 30.01 in 1.9 mi SW 3.5 mph - N/A   Unknown
7:43 AM 55.4 °F - 55.4 °F 100% 30.04 in 2.5 mi WSW 3.5 mph - N/A   Mist
8:00 AM 55.4 °F - 55.4 °F 100% 30.04 in 2.5 mi WSW 3.5 mph - N/A   Mist
9:03 AM 60.8 °F - 57.2 °F 88% 30.04 in 3.1 mi Variable 1.2 mph - N/A   Unknown
9:30 AM 64.4 °F - 55.4 °F 73% 30.04 in - NE 5.8 mph - N/A   Clear
10:00 AM 64 °F - 56 °F 68% 30.00 in 4 mi NE 5.8 mph - -   Clear
10:00 AM 64.4 °F - 55.4 °F 73% 30.04 in 3.7 mi NE 5.8 mph - N/A   Unknown
10:30 AM 66.2 °F - 55.4 °F 68% 30.04 in 3.7 mi NNE 3.5 mph - N/A   Unknown
11:30 AM 69.8 °F - 57.2 °F 64% 30.04 in - Variable 6.9 mph - N/A   Clear
12:00 PM 71.6 °F - 57.2 °F 60% 30.04 in - NNE 4.6 mph - N/A   Clear
12:30 PM 73.4 °F - 55.4 °F 53% 30.04 in - Variable 5.8 mph - N/A   Clear
1:00 PM 74 °F - 55 °F 41% 29.96 in 6 mi East 3.5 mph - -   Clear
1:00 PM 73.4 °F - 55.4 °F 53% 30.04 in - Variable 3.5 mph - N/A   Clear
1:30 PM 75.2 °F - 55.4 °F 50% 30.01 in - Variable 3.5 mph - N/A   Clear
2:00 PM 77.0 °F - 55.4 °F 47% 30.01 in - NE 8.1 mph - N/A   Clear
2:30 PM 78.8 °F - 53.6 °F 42% 30.01 in - North 5.8 mph - N/A   Clear
3:00 PM 80.6 °F 80.5 °F 55.4 °F 42% 29.98 in - Variable 5.8 mph - N/A   Clear
3:30 PM 80.6 °F 80.3 °F 53.6 °F 39% 29.98 in - NE 8.1 mph - N/A   Clear
4:00 PM 82 °F - 53 °F 26% 29.88 in 6 mi East 8.1 mph - -   Clear
4:00 PM 82.4 °F 81.4 °F 53.6 °F 37% 29.95 in - East 8.1 mph - N/A   Clear
4:30 PM 82.4 °F - 51.8 °F 35% 29.95 in 5.6 mi Variable 4.6 mph - N/A   Unknown
5:00 PM 82.4 °F - 51.8 °F 35% 29.92 in 5.0 mi Variable 6.9 mph - N/A   Unknown
5:30 PM 84.2 °F 82.8 °F 53.6 °F 35% 29.92 in 5.0 mi North 5.8 mph - N/A   Unknown
6:00 PM 84.2 °F 82.8 °F 53.6 °F 35% 29.92 in 4.3 mi ESE 3.5 mph - N/A   Unknown
6:30 PM 84.2 °F 82.8 °F 53.6 °F 35% 29.95 in 5.0 mi NE 6.9 mph - N/A   Unknown
7:00 PM 83 °F - 50 °F 22% 29.86 in 6 mi NE 5.8 mph - -  
7:00 PM 84.2 °F - 50.0 °F 30% 29.95 in - NNE 4.6 mph - N/A   Clear
7:30 PM 82.4 °F - 50.0 °F 32% 29.95 in - NE 3.5 mph - N/A   Clear
8:00 PM 82.4 °F - 50.0 °F 32% 29.95 in 6.2 mi Variable 2.3 mph - N/A   Partly Cloudy
8:30 PM 77.0 °F - 55.4 °F 47% 29.98 in 6.2 mi North 12.7 mph - N/A   Scattered Clouds
9:00 PM 73.4 °F - 55.4 °F 53% 29.98 in 6.2 mi NNE 15.0 mph - N/A   Scattered Clouds
9:30 PM 71.6 °F - 55.4 °F 57% 29.98 in - NNE 13.8 mph - N/A   Clear
10:00 PM 69 °F - 54 °F 50% 29.95 in 6 mi NNE 10.4 mph - -   Clear
10:00 PM 69.8 °F - 55.4 °F 60% 30.01 in - NNE 11.5 mph - N/A   Clear
10:30 PM 69.8 °F - 55.4 °F 60% 30.01 in - NNE 11.5 mph - N/A   Clear
11:00 PM 68.0 °F - 55.4 °F 64% 30.01 in - ENE 6.9 mph - N/A   Clear
11:30 PM 68.0 °F - 55.4 °F 64% 30.01 in - ENE 2.3 mph - N/A   Clear